GW1765 Weather Reports


Display with metric or nautical units.
time (UTC)temp
F
wind
direction
speed
MPH
gust
MPH
rain 1hr
in
rain 24hr
in
rain mn
in
humidity
%
barometer
mb
20260903195111 56 0.0 0.0 0.00 0.01 0.00 99 1011.4
20260903194110 56 0.0 0.0 0.00 0.01 0.00 99 1011.3
20260903193104 56 0.0 0.0 0.00 0.01 0.00 99 1011.5
20260903192102 56 0.0 0.0 0.00 0.01 0.00 99 1011.4
20260903191057 56 0.0 0.0 0.00 0.01 0.00 99 1011.5
20260903190053 56 0.0 0.0 0.00 0.01 0.00 99 1011.7
20260903185051 56 0.0 0.0 0.00 0.01 0.00 99 1011.8
20260903184047 56 0.0 0.0 0.00 0.01 0.00 99 1011.9
20260903183043 56 0.0 0.0 0.00 0.01 0.00 99 1011.9
20260903182048 56 0.0 0.0 0.00 0.01 0.00 99 1011.9
20260903181036 56 0.0 0.0 0.00 0.01 0.00 99 1011.9
20260903180055 56 0.0 0.0 0.00 0.01 0.00 99 1012.1
20260903175029 56 0.0 0.0 0.00 0.01 0.00 99 1012.2
20260903174025 56 0.0 0.0 0.00 0.01 0.00 99 1012.2
20260903173022 56 0.0 0.0 0.00 0.01 0.00 99 1012.4
20260903172018 56 315 0.0 4.0 0.00 0.01 0.00 99 1012.6
20260903171116 56 0.0 0.0 0.00 0.01 0.00 99 1012.8
20260903170133 56 0.0 0.0 0.00 0.01 0.00 99 1012.7
20260903165130 56 293 0.0 6.0 0.00 0.01 0.00 99 1012.8
20260903164106 56 293 0.0 6.0 0.00 0.01 0.00 99 1013.0
20260903163101 56 293 0.0 6.0 0.00 0.01 0.00 99 1013.0
20260903162058 56 0.0 0.0 0.00 0.01 0.00 99 1012.9
20260903161054 56 0.0 0.0 0.00 0.01 0.00 99 1013.0
20260903160050 56 0.0 0.0 0.00 0.01 0.00 99 1013.1
20260903155047 56 0 1.0 8.0 0.00 0.01 0.00 99 1013.3
20260903154043 56 328 0.0 8.0 0.00 0.01 0.00 99 1013.2
20260903153101 56 293 0.0 5.0 0.00 0.01 0.00 99 1013.2
20260903152037 56 315 0.0 8.0 0.00 0.01 0.00 99 1013.3
20260903151033 56 0.0 2.0 0.00 0.01 0.00 99 1013.5
20260903150032 56 113 1.0 8.0 0.00 0.01 0.00 99 1013.5
20260903145026 56 315 0.0 4.0 0.00 0.01 0.00 99 1013.7
20260903144023 56 293 0.0 8.0 0.00 0.01 0.00 99 1013.9
20260903143021 56 0.0 3.0 0.00 0.01 0.00 99 1014.0
20260903142017 56 298 3.0 9.0 0.00 0.01 0.00 99 1014.3
20260903141112 56 315 0.0 7.0 0.00 0.01 0.00 99 1014.3
20260903140109 57 315 0.0 8.0 0.00 0.01 0.00 99 1014.4
20260903135105 57 309 1.0 9.0 0.00 0.01 0.00 99 1014.5
20260903134104 57 293 1.0 8.0 0.00 0.01 0.00 99 1014.6
20260903133059 57 308 0.0 5.0 0.00 0.01 0.00 99 1014.7
20260903132055 57 303 2.0 10.0 0.00 0.01 0.00 99 1014.8
20260903131053 57 300 2.0 10.0 0.00 0.01 0.00 99 1014.8
20260903130048 57 235 0.0 10.0 0.00 0.01 0.00 99 1014.8
20260903125044 57 308 3.0 11.0 0.00 0.01 0.00 99 1014.8
20260903124204 57 305 5.0 11.0 0.00 0.01 0.00 99 1014.9
20260903123038 57 297 7.0 11.0 0.00 0.01 0.00 99 1014.8
20260903122035 57 309 8.0 11.0 0.00 0.01 0.00 99 1014.9
20260903121030 57 296 10.0 12.0 0.00 0.01 0.00 99 1014.9
20260903120028 57 304 9.0 12.0 0.00 0.01 0.00 99 1015.1
20260903115024 57 305 8.0 13.0 0.00 0.01 0.01 99 1015.1
20260903114022 57 304 10.0 13.0 0.00 0.01 0.01 99 1015.2
20260903113016 57 298 10.0 13.0 0.00 0.01 0.01 99 1015.4
20260903112113 57 301 11.0 14.0 0.00 0.01 0.01 99 1015.4
20260903111111 57 304 11.0 15.0 0.00 0.01 0.01 99 1015.3
20260903110106 57 303 12.0 15.0 0.00 0.01 0.01 99 1015.5
20260903105126 57 301 11.0 15.0 0.00 0.01 0.01 99 1015.5
20260903104101 57 305 10.0 14.0 0.00 0.01 0.01 99 1015.5
20260903103057 57 305 12.0 17.0 0.00 0.01 0.01 99 1015.7
20260903102052 57 308 12.0 17.0 0.00 0.01 0.01 99 1015.8
20260903101109 57 305 10.0 15.0 0.00 0.01 0.01 99 1015.9
20260903100106 57 296 8.0 11.0 0.00 0.01 0.01 99 1015.9
20260903095042 57 303 10.0 15.0 0.00 0.01 0.01 99 1015.9
20260903094039 57 305 8.0 11.0 0.00 0.01 0.01 99 1015.9
20260903093035 57 299 9.0 11.0 0.00 0.01 0.01 99 1016.0
20260903092031 57 309 11.0 15.0 0.01 0.01 0.01 99 1016.0
20260903091028 57 305 11.0 19.0 0.01 0.01 0.01 99 1015.9
20260903090105 57 313 11.0 16.0 0.01 0.01 0.01 99 1016.0
20260903085021 57 310 12.0 17.0 0.01 0.01 0.01 99 1016.0
20260903084017 57 303 11.0 17.0 0.01 0.01 0.01 99 1016.0
20260903083114 57 307 9.0 11.0 0.01 0.01 0.01 99 1016.0
20260903082110 57 306 9.0 13.0 0.00 0.00 0.00 99 1015.9
20260903081107 57 313 8.0 12.0 0.00 0.00 0.00 99 1016.0
20260903080105 57 313 9.0 15.0 0.00 0.00 0.00 99 1016.1
20260903075100 56 308 9.0 14.0 0.00 0.00 0.00 99 1016.0
20260903074057 56 315 10.0 15.0 0.00 0.00 0.00 99 1016.0
20260903073053 56 315 9.0 11.0 0.00 0.00 0.00 99 1016.0
20260903072111 56 307 9.0 15.0 0.00 0.00 0.00 99 1015.9
20260903071046 56 313 8.0 11.0 0.00 0.00 0.00 99 1015.9
20260903070045 56 312 9.0 17.0 0.00 0.00 0.00 99 1015.8
20260903065039 56 295 10.0 15.0 0.00 0.00 0.00 99 1015.8
20260903064035 56 315 9.0 15.0 0.00 0.00 0.00 99 1015.8
20260903063032 56 309 9.0 13.0 0.00 0.00 0.00 98 1015.7
20260903062029 56 319 10.0 13.0 0.00 0.00 0.00 98 1015.5
20260903061025 56 315 10.0 13.0 0.00 0.00 0.00 97 1015.5
20260903060023 56 312 11.0 15.0 0.00 0.00 0.00 96 1015.5
20260903055018 56 319 11.0 16.0 0.00 0.00 0.00 96 1015.6
20260903054115 56 315 11.0 16.0 0.00 0.00 0.00 95 1015.6
20260903053111 56 315 6.0 15.0 0.00 0.00 0.00 95 1015.5
20260903052110 56 315 10.0 13.0 0.00 0.00 0.00 94 1015.6
20260903051106 56 315 9.0 14.0 0.00 0.00 0.00 93 1015.6
20260903050100 56 315 9.0 14.0 0.00 0.00 0.00 93 1015.5
20260903045057 56 323 8.0 12.0 0.00 0.00 0.00 92 1015.6
20260903044053 56 324 9.0 11.0 0.00 0.00 0.00 92 1015.6
20260903043050 55 0 4.0 6.0 0.00 0.00 0.00 91 1015.7
20260903042046 55 357 7.0 11.0 0.00 0.00 0.00 91 1015.6
20260903041044 56 0 8.0 13.0 0.00 0.00 0.00 91 1015.8
20260903040040 56 349 8.0 13.0 0.00 0.00 0.00 92 1015.9
20260903035035 56 353 8.0 13.0 0.00 0.00 0.00 92 1016.1
20260903034033 55 0 7.0 10.0 0.00 0.00 0.00 92 1016.0
20260903033030 55 349 9.0 13.0 0.00 0.00 0.00 92 1016.1
20260903032046 55 0 9.0 11.0 0.00 0.00 0.00 91 1016.2
20260903031022 55 180 9.0 11.0 0.00 0.00 0.00 91 1016.3
20260903030020 0 0.0 0.0 0.00 0.00 0.00 1016.4
20260903025115 0 0.0 0.0 0.00 0.00 0.00 1016.4
20260903024111 56 315 14.0 15.0 0.00 0.00 0.00 90 1016.5
20260903023108 56 315 14.0 16.0 0.00 0.00 0.00 90 1016.5
20260903022105 56 356 14.0 20.0 0.00 0.00 0.00 90 1016.6
20260903021101 56 350 14.0 19.0 0.00 0.00 0.00 89 1016.6
20260903020057 56 340 14.0 22.0 0.00 0.00 0.00 88 1016.6
20260903015053 57 350 12.0 18.0 0.00 0.00 0.00 88 1016.8
20260903014051 57 339 13.0 19.0 0.00 0.00 0.00 87 1017.0
20260903013047 57 332 14.0 19.0 0.00 0.00 0.00 85 1017.3
20260903012043 57 330 13.0 21.0 0.00 0.00 0.00 83 1017.5
20260903011041 57 350 13.0 20.0 0.00 0.00 0.00 80 1017.6
20260903010059 58 343 12.0 17.0 0.00 0.00 0.00 80 1017.8
20260903005033 58 356 11.0 16.0 0.00 0.00 0.00 80 1018.1
20260903004029 58 337 12.0 18.0 0.00 0.01 0.00 80 1018.2
20260903003026 58 340 12.0 17.0 0.00 0.01 0.00 80 1018.5
20260903002025 58 333 11.0 17.0 0.00 0.02 0.00 80 1018.7
20260903001039 58 326 14.0 18.0 0.00 0.02 0.00 80 1018.7
20260903000016 58 331 13.0 18.0 0.00 0.02 0.00 81 1018.5
20260902235113 58 337 9.0 13.0 0.00 0.02 0.00 81 1018.7
20260902234109 57 326 12.0 17.0 0.00 0.02 0.00 80 1018.9
20260902233127 57 348 11.0 17.0 0.00 0.02 0.00 80 1018.9
20260902232102 57 340 12.0 21.0 0.00 0.02 0.00 78 1019.1
20260902231059 58 321 13.0 17.0 0.00 0.04 0.00 78 1019.2
20260902230055 57 320 10.0 15.0 0.00 0.04 0.00 79 1019.2
20260902225054 57 343 11.0 17.0 0.00 0.04 0.00 79 1019.2
20260902224048 57 332 12.0 18.0 0.00 0.04 0.00 80 1019.3
20260902223105 57 318 13.0 17.0 0.00 0.04 0.00 81 1019.4
20260902222042 56 332 12.0 16.0 0.00 0.04 0.00 81 1019.4
20260902221038 56 331 10.0 16.0 0.00 0.04 0.00 80 1019.5
20260902220035 57 324 9.0 13.0 0.00 0.04 0.00 79 1019.8
20260902215032 57 336 10.0 15.0 0.00 0.04 0.00 79 1019.8
20260902214028 57 337 8.0 11.0 0.00 0.04 0.00 82 1019.8
20260902213024 56 336 11.0 16.0 0.00 0.04 0.00 82 1019.9
20260902212021 56 342 7.0 11.0 0.00 0.04 0.00 85 1019.9
20260902211017 56 342 6.0 11.0 0.00 0.04 0.00 88 1020.0
20260902210114 56 348 4.0 8.0 0.00 0.04 0.00 91 1020.0
20260902205133 55 334 5.0 8.0 0.00 0.04 0.00 91 1020.1
20260902204129 54 4 6.0 11.0 0.00 0.04 0.00 93 1020.0
20260902203103 54 353 6.0 10.0 0.00 0.04 0.00 95 1019.9
20260902202100 54 346 5.0 9.0 0.00 0.04 0.00 96 1019.9
20260902201059 54 356 5.0 6.0 0.00 0.04 0.00 96 1019.9
20260902200053 54 351 5.0 8.0 0.00 0.04 0.00 96 1019.6